Simultaneous Nadir Overpasses (SNOs) Predictions

Prediction of SNOs between GOES-16 and LANDSAT-8 Satellite Orbit:

Table of predicted SNOs for the next 14.0 days since TLE Epoch: 10/22/2022
Index Date Time (GOES-16) GOES-16 Lat,Lon LANDSAT-8 Lat,Lon Distance(km) Time Diff (sec)
1 10/22/2022 15:15:52 -0.07, -75.21 -0.01, -75.41 23.60 80
2 10/24/2022 15:01:02 -0.07, -75.22 -0.65, -72.46 313.73 80
3 10/25/2022 03:25:06 0.06, -75.21 -0.48, -77.65 278.20 80
4 10/27/2022 03:10:16 0.06, -75.22 0.18, -74.70 59.35 80
5 10/29/2022 02:58:05 0.06, -75.24 0.79, -71.75 396.96 80
6 10/29/2022 15:19:21 -0.05, -75.26 0.29, -76.91 187.07 80
7 10/31/2022 15:09:50 -0.05, -75.28 -0.32, -73.95 150.98 80
8 11/01/2022 03:31:13 0.04, -75.27 -0.79, -79.14 440.55 80
9 11/02/2022 14:54:59 -0.04, -75.30 -0.95, -70.99 489.81 80
10 11/03/2022 03:19:02 0.04, -75.29 -0.16, -76.18 101.46 80
